Time,TemperatureF,DewpointF,PressureIn,WindDirection,WindDirectionDegrees,WindSpeedMPH,WindSpeedGustMPH,Humidity,HourlyPrecipIn,Conditions,Clouds,dailyrainin,SoftwareType,DateUTC
2013-03-21 00:01:00,2.0,-4.0,29.92,ESE,103,0.0,0.0,77,0.00,,,0.00,,2013-03-21 08:01:00,
2013-03-21 00:12:00,2.0,-4.0,29.92,ESE,103,0.0,0.0,77,0.00,,,0.00,,2013-03-21 08:12:00,
2013-03-21 00:22:00,2.0,-4.0,29.92,ESE,102,0.0,0.0,77,0.00,,,0.00,,2013-03-21 08:22:00,
2013-03-21 00:33:00,2.0,-3.0,29.93,ESE,103,0.0,0.0,80,0.00,,,0.00,,2013-03-21 08:33:00,
2013-03-21 00:42:00,2.0,-3.0,29.93,ESE,103,0.0,0.0,80,0.00,,,0.00,,2013-03-21 08:42:00,
2013-03-21 00:51:00,2.0,-2.0,29.93,ESE,102,0.0,0.0,81,0.00,,,0.00,,2013-03-21 08:51:00,
2013-03-21 01:02:00,2.0,-2.0,29.93,ESE,102,0.0,0.0,81,0.00,,,0.00,,2013-03-21 09:02:00,
2013-03-21 01:11:00,2.0,-2.0,29.93,ESE,102,0.0,0.0,81,0.00,,,0.00,,2013-03-21 09:11:00,
2013-03-21 01:21:00,2.0,-2.0,29.94,ESE,102,0.0,0.0,82,0.00,,,0.00,,2013-03-21 09:21:00,
2013-03-21 01:33:00,2.0,-2.0,29.94,ESE,103,0.0,0.0,82,0.00,,,0.00,,2013-03-21 09:33:00,
2013-03-21 01:43:00,2.0,-2.0,29.94,ESE,103,0.0,0.0,82,0.00,,,0.00,,2013-03-21 09:43:00,
2013-03-21 01:53:00,1.0,-3.0,29.94,ESE,103,0.0,0.0,83,0.00,,,0.00,,2013-03-21 09:53:00,
2013-03-21 02:02:00,1.0,-3.0,29.94,ESE,103,0.0,0.0,83,0.00,,,0.00,,2013-03-21 10:02:00,
2013-03-21 02:12:00,1.0,-3.0,29.94,ESE,103,0.0,0.0,83,0.00,,,0.00,,2013-03-21 10:12:00,
2013-03-21 02:22:00,1.0,-3.0,29.95,ESE,102,0.0,0.0,82,0.00,,,0.00,,2013-03-21 10:22:00,
2013-03-21 02:32:00,0.0,-4.0,29.95,ESE,102,0.0,0.0,83,0.00,,,0.00,,2013-03-21 10:32:00,
2013-03-21 02:42:00,0.0,-4.0,29.95,ESE,102,0.0,0.0,83,0.00,,,0.00,,2013-03-21 10:42:00,
2013-03-21 02:52:00,0.0,-4.0,29.96,ESE,103,0.0,0.0,84,0.00,,,0.00,,2013-03-21 10:52:00,
2013-03-21 03:02:00,0.0,-3.0,29.96,ESE,103,0.0,0.0,85,0.00,,,0.00,,2013-03-21 11:02:00,
2013-03-21 03:12:00,0.0,-3.0,29.96,ESE,103,0.0,0.0,85,0.00,,,0.00,,2013-03-21 11:12:00,
2013-03-21 03:22:00,0.0,-4.0,29.96,ESE,102,0.0,0.0,84,0.00,,,0.00,,2013-03-21 11:22:00,
2013-03-21 03:32:00,0.0,-3.0,29.96,ESE,102,0.0,1.0,87,0.00,,,0.00,,2013-03-21 11:32:00,
2013-03-21 03:42:00,0.0,-3.0,29.96,ESE,102,0.0,1.0,87,0.00,,,0.00,,2013-03-21 11:42:00,
2013-03-21 03:52:00,1.0,-1.0,29.97,East,88,0.0,1.0,89,0.00,,,0.00,,2013-03-21 11:52:00,
2013-03-21 04:12:00,2.0,-1.0,29.97,NE,36,0.0,2.0,88,0.00,,,0.00,,2013-03-21 12:12:00,
2013-03-21 04:22:00,3.0,-1.0,29.97,ENE,75,0.0,1.0,84,0.00,,,0.00,,2013-03-21 12:22:00,
2013-03-21 04:32:00,1.0,-3.0,29.98,ENE,75,0.0,0.0,83,0.00,,,0.00,,2013-03-21 12:32:00,
2013-03-21 04:42:00,1.0,-3.0,29.98,ENE,75,0.0,0.0,83,0.00,,,0.00,,2013-03-21 12:42:00,
2013-03-21 04:52:00,0.0,-3.0,29.98,NNE,17,0.0,1.0,88,0.00,,,0.00,,2013-03-21 12:52:00,
2013-03-21 05:02:00,2.0,-1.0,29.98,NNE,28,0.0,3.0,87,0.00,,,0.00,,2013-03-21 13:02:00,
2013-03-21 05:12:00,2.0,-1.0,29.98,NNE,28,0.0,3.0,87,0.00,,,0.00,,2013-03-21 13:12:00,
2013-03-21 05:22:00,2.0,-1.0,29.98,North,350,0.0,1.0,86,0.00,,,0.00,,2013-03-21 13:22:00,
2013-03-21 05:32:00,1.0,-3.0,29.98,North,349,0.0,0.0,83,0.00,,,0.00,,2013-03-21 13:32:00,
2013-03-21 05:42:00,1.0,-3.0,29.98,North,349,0.0,0.0,83,0.00,,,0.00,,2013-03-21 13:42:00,
2013-03-21 05:52:00,1.0,-3.0,29.99,North,349,0.0,0.0,82,0.00,,,0.00,,2013-03-21 13:52:00,
2013-03-21 06:02:00,0.0,-3.0,29.99,North,350,0.0,0.0,85,0.00,,,0.00,,2013-03-21 14:02:00,
2013-03-21 06:11:00,0.0,-3.0,29.99,North,350,0.0,0.0,85,0.00,,,0.00,,2013-03-21 14:11:00,
2013-03-21 06:21:00,0.0,-3.0,29.99,North,349,0.0,0.0,85,0.00,,,0.00,,2013-03-21 14:21:00,
2013-03-21 06:32:00,0.0,-3.0,29.99,North,349,0.0,0.0,85,0.00,,,0.00,,2013-03-21 14:32:00,
2013-03-21 06:42:00,0.0,-3.0,29.99,North,349,0.0,0.0,85,0.00,,,0.00,,2013-03-21 14:42:00,
2013-03-21 06:51:00,0.0,-3.0,29.99,North,350,0.0,0.0,86,0.00,,,0.00,,2013-03-21 14:51:00,
2013-03-21 07:02:00,0.0,-3.0,30.00,North,350,0.0,0.0,86,0.00,,,0.00,,2013-03-21 15:02:00,
2013-03-21 07:12:00,0.0,-3.0,30.00,North,350,0.0,0.0,86,0.00,,,0.00,,2013-03-21 15:12:00,
2013-03-21 07:22:00,0.0,-3.0,30.00,North,350,0.0,0.0,86,0.00,,,0.00,,2013-03-21 15:22:00,
2013-03-21 07:32:00,0.0,-3.0,30.01,North,349,0.0,0.0,86,0.00,,,0.00,,2013-03-21 15:32:00,
2013-03-21 07:42:00,0.0,-3.0,30.01,North,349,0.0,0.0,86,0.00,,,0.00,,2013-03-21 15:42:00,
2013-03-21 07:52:00,0.0,-3.0,30.01,North,349,0.0,0.0,86,0.00,,,0.00,,2013-03-21 15:52:00,
2013-03-21 08:03:00,0.0,-3.0,30.01,North,350,0.0,0.0,86,0.00,,,0.00,,2013-03-21 16:03:00,
2013-03-21 08:12:00,0.0,-3.0,30.01,North,350,0.0,0.0,86,0.00,,,0.00,,2013-03-21 16:12:00,
2013-03-21 08:22:00,0.0,-3.0,30.01,North,349,0.0,0.0,85,0.00,,,0.00,,2013-03-21 16:22:00,
2013-03-21 08:33:00,0.0,-3.0,30.02,North,350,0.0,0.0,85,0.00,,,0.00,,2013-03-21 16:33:00,
2013-03-21 08:42:00,0.0,-3.0,30.02,North,350,0.0,0.0,85,0.00,,,0.00,,2013-03-21 16:42:00,
2013-03-21 08:52:00,0.0,-3.0,30.02,North,349,0.0,0.0,86,0.00,,,0.00,,2013-03-21 16:52:00,
2013-03-21 09:02:00,0.0,-3.0,30.02,West,264,0.0,0.0,86,0.00,,,0.00,,2013-03-21 17:02:00,
2013-03-21 09:12:00,0.0,-3.0,30.02,West,264,0.0,0.0,86,0.00,,,0.00,,2013-03-21 17:12:00,
2013-03-21 09:22:00,0.0,-3.0,30.02,West,264,0.0,1.0,86,0.00,,,0.00,,2013-03-21 17:22:00,
2013-03-21 09:32:00,0.0,-3.0,30.03,NW,306,0.0,1.0,86,0.00,,,0.00,,2013-03-21 17:32:00,
2013-03-21 09:42:00,0.0,-3.0,30.03,NW,306,0.0,1.0,86,0.00,,,0.00,,2013-03-21 17:42:00,
2013-03-21 09:52:00,3.0,1.0,30.03,North,9,0.0,2.0,89,0.00,,,0.00,,2013-03-21 17:52:00,
2013-03-21 10:02:00,5.0,2.0,30.03,North,360,0.0,3.0,86,0.00,,,0.00,,2013-03-21 18:02:00,
2013-03-21 10:11:00,5.0,2.0,30.03,North,360,0.0,3.0,86,0.00,,,0.00,,2013-03-21 18:11:00,
2013-03-21 10:22:00,5.0,2.0,30.03,North,5,0.0,2.0,85,0.00,,,0.00,,2013-03-21 18:22:00,
2013-03-21 10:32:00,5.0,2.0,30.03,NE,40,0.0,2.0,85,0.00,,,0.00,,2013-03-21 18:32:00,
2013-03-21 10:42:00,5.0,2.0,30.03,NE,40,0.0,2.0,85,0.00,,,0.00,,2013-03-21 18:42:00,
2013-03-21 10:52:00,6.0,2.0,30.03,NNE,19,0.0,3.0,84,0.00,,,0.00,,2013-03-21 18:52:00,
2013-03-21 11:02:00,6.0,2.0,30.03,NE,40,1.0,3.0,84,0.00,,,0.00,,2013-03-21 19:02:00,
2013-03-21 11:11:00,6.0,2.0,30.03,NE,40,1.0,3.0,84,0.00,,,0.00,,2013-03-21 19:11:00,
2013-03-21 11:22:00,7.0,3.0,30.03,NE,44,1.0,5.0,82,0.00,,,0.00,,2013-03-21 19:22:00,
2013-03-21 11:32:00,7.0,3.0,30.03,NNE,32,1.0,4.0,82,0.00,,,0.00,,2013-03-21 19:32:00,
2013-03-21 11:42:00,7.0,3.0,30.03,NNE,32,1.0,4.0,82,0.00,,,0.00,,2013-03-21 19:42:00,
2013-03-21 11:52:00,7.0,2.0,30.03,NE,44,0.0,4.0,81,0.00,,,0.00,,2013-03-21 19:52:00,
2013-03-21 12:02:00,8.0,4.0,30.03,NE,46,0.0,3.0,82,0.00,,,0.00,,2013-03-21 20:02:00,
2013-03-21 12:12:00,8.0,4.0,30.03,NE,46,0.0,3.0,82,0.00,,,0.00,,2013-03-21 20:12:00,
2013-03-21 12:22:00,8.0,3.0,30.03,NNE,26,0.0,3.0,81,0.00,,,0.00,,2013-03-21 20:22:00,
2013-03-21 12:32:00,8.0,3.0,30.03,NE,44,0.0,4.0,81,0.00,,,0.00,,2013-03-21 20:32:00,
2013-03-21 12:42:00,8.0,3.0,30.03,NE,44,0.0,4.0,81,0.00,,,0.00,,2013-03-21 20:42:00,
2013-03-21 13:02:00,9.0,5.0,30.03,NNE,26,0.0,3.0,84,0.00,,,0.00,,2013-03-21 21:02:00,
2013-03-21 13:12:00,9.0,5.0,30.03,NNE,26,0.0,3.0,84,0.00,,,0.00,,2013-03-21 21:12:00,
2013-03-21 13:22:00,9.0,5.0,30.03,East,94,0.0,3.0,85,0.00,,,0.00,,2013-03-21 21:22:00,
2013-03-21 13:32:00,10.0,6.0,30.03,ESE,119,0.0,3.0,85,0.00,,,0.00,,2013-03-21 21:32:00,
2013-03-21 13:43:00,10.0,6.0,30.03,ESE,119,0.0,3.0,85,0.00,,,0.00,,2013-03-21 21:43:00,
2013-03-21 13:52:00,11.0,7.0,30.03,NE,36,1.0,3.0,84,0.00,,,0.00,,2013-03-21 21:52:00,
2013-03-21 14:02:00,12.0,8.0,30.03,NE,35,0.0,3.0,83,0.00,,,0.00,,2013-03-21 22:02:00,
2013-03-21 14:12:00,12.0,8.0,30.03,NE,35,0.0,3.0,83,0.00,,,0.00,,2013-03-21 22:12:00,
2013-03-21 14:22:00,13.0,9.0,30.03,SE,136,0.0,3.0,82,0.00,,,0.00,,2013-03-21 22:22:00,
2013-03-21 14:33:00,13.0,9.0,30.03,ESE,103,0.0,3.0,82,0.00,,,0.00,,2013-03-21 22:33:00,
2013-03-21 14:42:00,13.0,9.0,30.03,ESE,103,0.0,3.0,82,0.00,,,0.00,,2013-03-21 22:42:00,
2013-03-21 14:52:00,14.0,10.0,30.03,ESE,114,0.0,2.0,83,0.00,,,0.00,,2013-03-21 22:52:00,
2013-03-21 15:02:00,14.0,10.0,30.03,ENE,62,0.0,3.0,83,0.00,,,0.00,,2013-03-21 23:02:00,
2013-03-21 15:12:00,14.0,10.0,30.03,ENE,62,0.0,3.0,83,0.00,,,0.00,,2013-03-21 23:12:00,
2013-03-21 15:21:00,15.0,11.0,30.02,ENE,62,0.0,3.0,82,0.00,,,0.00,,2013-03-21 23:21:00,
2013-03-21 15:32:00,16.0,10.0,30.02,ESE,106,0.0,2.0,78,0.00,,,0.00,,2013-03-21 23:32:00,
2013-03-21 15:42:00,16.0,10.0,30.02,ESE,106,0.0,2.0,78,0.00,,,0.00,,2013-03-21 23:42:00,
2013-03-21 15:52:00,17.0,10.0,30.01,ESE,107,0.0,2.0,72,0.00,,,0.00,,2013-03-21 23:52:00,
2013-03-21 16:02:00,18.0,9.0,30.01,ESE,114,0.0,2.0,68,0.00,,,0.00,,2013-03-22 00:02:00,
2013-03-21 16:11:00,18.0,9.0,30.01,ESE,114,0.0,2.0,68,0.00,,,0.00,,2013-03-22 00:11:00,
2013-03-21 16:22:00,18.0,9.0,30.01,ESE,112,0.0,3.0,66,0.00,,,0.00,,2013-03-22 00:22:00,
2013-03-21 16:31:00,18.0,8.0,30.01,East,80,2.0,7.0,65,0.00,,,0.00,,2013-03-22 00:31:00,
2013-03-21 16:42:00,18.0,8.0,30.01,East,80,2.0,7.0,65,0.00,,,0.00,,2013-03-22 00:42:00,
2013-03-21 16:52:00,18.0,8.0,30.00,ESE,104,1.0,6.0,65,0.00,,,0.00,,2013-03-22 00:52:00,
2013-03-21 17:02:00,18.0,9.0,30.00,NE,45,0.0,2.0,66,0.00,,,0.00,,2013-03-22 01:02:00,
2013-03-21 17:12:00,18.0,9.0,30.00,NE,45,0.0,2.0,66,0.00,,,0.00,,2013-03-22 01:12:00,
2013-03-21 17:21:00,18.0,8.0,29.99,East,82,2.0,7.0,64,0.00,,,0.00,,2013-03-22 01:21:00,
2013-03-21 17:32:00,18.0,8.0,29.99,East,88,0.0,2.0,64,0.00,,,0.00,,2013-03-22 01:32:00,
2013-03-21 17:42:00,18.0,8.0,29.99,East,88,0.0,2.0,64,0.00,,,0.00,,2013-03-22 01:42:00,
2013-03-21 17:52:00,18.0,8.0,29.98,East,94,0.0,2.0,64,0.00,,,0.00,,2013-03-22 01:52:00,
2013-03-21 18:02:00,18.0,8.0,29.98,East,94,0.0,1.0,65,0.00,,,0.00,,2013-03-22 02:02:00,
2013-03-21 18:12:00,18.0,8.0,29.98,East,94,0.0,1.0,65,0.00,,,0.00,,2013-03-22 02:12:00,
2013-03-21 18:22:00,18.0,9.0,29.98,East,94,0.0,1.0,66,0.00,,,0.00,,2013-03-22 02:22:00,
2013-03-21 18:32:00,18.0,12.0,29.98,East,94,0.0,0.0,76,0.00,,,0.00,,2013-03-22 02:32:00,
2013-03-21 18:42:00,18.0,12.0,29.98,East,94,0.0,0.0,76,0.00,,,0.00,,2013-03-22 02:42:00,
2013-03-21 18:52:00,18.0,9.0,29.98,East,94,0.0,1.0,68,0.00,,,0.00,,2013-03-22 02:52:00,
2013-03-21 19:02:00,18.0,11.0,29.98,East,94,0.0,0.0,72,0.00,,,0.00,,2013-03-22 03:02:00,
2013-03-21 19:12:00,18.0,11.0,29.98,East,94,0.0,0.0,72,0.00,,,0.00,,2013-03-22 03:12:00,
2013-03-21 19:21:00,17.0,9.0,29.98,East,94,0.0,0.0,71,0.00,,,0.00,,2013-03-22 03:21:00,
2013-03-21 19:32:00,17.0,11.0,29.98,East,94,0.0,0.0,76,0.00,,,0.00,,2013-03-22 03:32:00,
2013-03-21 19:42:00,17.0,11.0,29.98,East,94,0.0,0.0,76,0.00,,,0.00,,2013-03-22 03:42:00,
2013-03-21 19:53:00,16.0,10.0,29.98,East,94,0.0,0.0,76,0.00,,,0.00,,2013-03-22 03:53:00,
2013-03-21 20:03:00,15.0,9.0,29.98,East,94,0.0,0.0,78,0.00,,,0.00,,2013-03-22 04:03:00,
2013-03-21 20:12:00,15.0,9.0,29.98,East,94,0.0,0.0,78,0.00,,,0.00,,2013-03-22 04:12:00,
2013-03-21 20:22:00,14.0,8.0,29.97,East,94,0.0,0.0,78,0.00,,,0.00,,2013-03-22 04:22:00,
2013-03-21 20:32:00,15.0,9.0,29.98,East,94,0.0,0.0,78,0.00,,,0.00,,2013-03-22 04:32:00,
2013-03-21 20:42:00,15.0,9.0,29.98,East,94,0.0,0.0,78,0.00,,,0.00,,2013-03-22 04:42:00,
2013-03-21 20:52:00,13.0,8.0,29.98,East,94,0.0,0.0,79,0.00,,,0.00,,2013-03-22 04:52:00,
2013-03-21 21:02:00,12.0,7.0,29.98,East,94,0.0,0.0,81,0.00,,,0.00,,2013-03-22 05:02:00,
2013-03-21 21:12:00,12.0,7.0,29.98,East,94,0.0,0.0,81,0.00,,,0.00,,2013-03-22 05:12:00,
2013-03-21 21:22:00,12.0,8.0,29.97,East,94,0.0,0.0,82,0.00,,,0.00,,2013-03-22 05:22:00,
2013-03-21 21:32:00,11.0,7.0,29.97,East,94,0.0,0.0,84,0.00,,,0.00,,2013-03-22 05:32:00,
2013-03-21 21:42:00,11.0,7.0,29.97,East,94,0.0,0.0,84,0.00,,,0.00,,2013-03-22 05:42:00,
2013-03-21 21:52:00,11.0,7.0,29.96,East,94,0.0,0.0,84,0.00,,,0.00,,2013-03-22 05:52:00,
2013-03-21 22:02:00,11.0,7.0,29.96,East,94,0.0,0.0,85,0.00,,,0.00,,2013-03-22 06:02:00,
2013-03-21 22:12:00,11.0,7.0,29.96,East,94,0.0,0.0,85,0.00,,,0.00,,2013-03-22 06:12:00,
2013-03-21 22:22:00,11.0,7.0,29.96,East,94,0.0,0.0,84,0.00,,,0.00,,2013-03-22 06:22:00,
2013-03-21 22:32:00,10.0,6.0,29.96,East,94,0.0,0.0,84,0.00,,,0.00,,2013-03-22 06:32:00,
2013-03-21 22:42:00,10.0,6.0,29.96,East,94,0.0,0.0,84,0.00,,,0.00,,2013-03-22 06:42:00,
2013-03-21 22:52:00,10.0,6.0,29.96,East,94,0.0,1.0,85,0.00,,,0.00,,2013-03-22 06:52:00,
2013-03-21 23:02:00,10.0,7.0,29.96,East,94,0.0,0.0,86,0.00,,,0.00,,2013-03-22 07:02:00,
2013-03-21 23:11:00,10.0,7.0,29.96,East,94,0.0,0.0,86,0.00,,,0.00,,2013-03-22 07:11:00,
2013-03-21 23:22:00,9.0,5.0,29.95,East,94,0.0,1.0,85,0.00,,,0.00,,2013-03-22 07:22:00,
2013-03-21 23:32:00,9.0,5.0,29.96,East,94,0.0,0.0,85,0.00,,,0.00,,2013-03-22 07:32:00,
2013-03-21 23:42:00,9.0,5.0,29.96,East,94,0.0,0.0,85,0.00,,,0.00,,2013-03-22 07:42:00,
2013-03-21 23:52:00,9.0,5.0,29.96,East,94,0.0,0.0,85,0.00,,,0.00,,2013-03-22 07:52:00,